Regional Weather Roundup
Issued by NWS

Home | Current Version | Previous Version | Graphics & Text | Print | Product List | Glossary On
Versions: 1 2 3 4 5 6 7 8 9 10 11 12 13 14 15 16 17 18 19 20 21 22 23 24 25 26 27 28 29 30 31 32 33 34 35 36 37 38 39 40 41 42 43 44 45 46 47 48 49 50
875
ASUS43 KLSX 250710
RWRMO

WEATHER SUMMARY FOR MISSOURI
NATIONAL WEATHER SERVICE SPRINGFIELD MO
200 AM CDT WED MAY 25 2016

NOTE: "FAIR" INDICATES FEW OR NO CLOUDS BELOW 12,000 FEET WITH NO
       SIGNIFICANT WEATHER AND/OR OBSTRUCTIONS TO VISIBILITY.
       CURRENT SKY AND/OR WEATHER CONDITIONS ARE NOT AVAILABLE FOR
       CHILLICOTHE AND FARMINGTON.

MOZ001>031-035>038-043-044-053-054-250800-
...NORTHERN AND WESTERN MISSOURI...

CITY           SKY/WX    TMP DP  RH WIND       PRES   REMARKS
KANSAS CTY INT CLOUDY    68  64  87 SE9       29.88F
KANSAS C DTWN  CLOUDY    70  63  78 SE5       29.88F
LEE`S SUMMIT   CLOUDY    65  62  90 SE5       29.90F
ST JOSEPH      CLOUDY    71  66  84 S7        29.86F
CHILLICOTHE      N/A     68  65  90 SE5       29.92F
KIRKSVILLE     CLOUDY    62  61  96 SE6       29.95F

$$
MOZ066>068-077>081-088>096-101>105-250800-
...SOUTHWEST MISSOURI...

CITY           SKY/WX    TMP DP  RH WIND       PRES   REMARKS
SPRINGFIELD    CLOUDY    66  62  87 S12       29.97R
JOPLIN         CLOUDY    71  63  75 SE6       29.88F

$$
MOZ032>034-039>042-045>050-055>058-069>072-250800-
...CENTRAL MISSOURI...

CITY           SKY/WX    TMP DP  RH WIND       PRES   REMARKS
COLUMBIA       CLOUDY    62  61  96 E7        29.95F
JEFFERSON CITY PTCLDY    64  61  90 E7        29.94F
ROLLA          CLOUDY    62  60  93 SE8       29.95F
SEDALIA        CLOUDY    63  60  90 SE3       29.94S
WHITEMAN AFB   MOCLDY    63  63 100 SE5       29.91F
WARRENSBURG    CLOUDY    61  59  94 SE6       29.91F

$$
MOZ051-052-059>065-250800-
...EAST CENTRAL MISSOURI...

CITY           SKY/WX    TMP DP  RH WIND       PRES   REMARKS
ST LOUIS INTL  CLOUDY    67  62  84 S6        30.01F
SPIRIT OF STL  CLOUDY    62  61  96 CALM      29.99F
ST CHARLES     CLOUDY    64  61  90 CALM      30.00F

$$
MOZ072>076-082>087-097>100-106>115-250800-
...SOUTH CENTRAL AND SOUTHEAST MISSOURI...

CITY           SKY/WX    TMP DP  RH WIND       PRES   REMARKS
CAPE GIRARDEAU PTCLDY    63  62  97 SE3       30.02F
FARMINGTON     MOCLDY    63  61  93 VRB3      30.02F
POPLAR BLUFF   PTCLDY    64  62  93 SW3       30.01S
WEST PLAINS    CLEAR     61  58  90 E5        29.99F

$$




USA.gov is the U.S. government's official web portal to all federal, state and local government web resources and services.